DW9996 Weather Reports


time (UTC)temp
C
wind
direction
speed
KPH
gust
KPH
rain 1hr
cm
rain 24hr
cm
rain mn
cm
humidity
%
barometer
mb
20260831140004 13 295 3.2 11.3 0.00 0.00 0.00 59 1011.4
20260831134505 13 277 4.8 14.5 0.00 0.00 0.00 59 1011.3
20260831133059 12 287 6.4 12.9 0.00 0.00 0.00 62 1011.0
20260831131600 11 287 8.0 19.3 0.00 0.00 0.00 64 1010.8
20260831124557 11 296 8.0 19.3 0.00 0.00 0.00 64 1010.4
20260831123051 11 290 8.0 19.3 0.00 0.00 0.00 63 1010.1
20260831121552 11 298 9.7 22.5 0.00 0.00 0.00 62 1010.0
20260831120056 11 303 11.3 22.5 0.00 0.00 0.00 63 1009.9
20260831114549 11 288 14.5 24.1 0.00 0.00 0.00 63 1010.0
20260831113107 12 260 9.7 22.5 0.00 0.00 0.00 62 1009.9
20260831111546 12 267 11.3 22.5 0.00 0.00 0.00 61 1009.7
20260831110046 12 282 12.9 27.4 0.00 0.00 0.00 62 1009.5
20260831104544 11 255 11.3 25.7 0.00 0.00 0.00 63 1009.5
20260831103048 11 302 12.9 22.5 0.00 0.00 0.00 65 1009.2
20260831101545 11 254 8.0 19.3 0.00 0.00 0.00 66 1009.2
20260831100040 10 284 8.0 19.3 0.00 0.00 0.00 67 1009.0
20260831094549 10 260 8.0 19.3 0.00 0.00 0.00 68 1008.9
20260831093035 10 231 6.4 12.9 0.00 0.00 0.00 68 1009.0
20260831091543 10 271 6.4 12.9 0.00 0.00 0.00 68 1009.1
20260831090038 10 256 6.4 19.3 0.00 0.00 0.00 67 1009.0
20260831084532 10 228 6.4 14.5 0.00 0.03 0.00 69 1008.8
20260831083024 10 239 6.4 14.5 0.00 0.03 0.00 68 1008.7
20260831081523 11 258 6.4 17.7 0.00 0.03 0.00 67 1008.4
20260831080030 11 257 9.7 22.5 0.00 0.03 0.00 67 1008.3
20260831074517 10 297 9.7 22.5 0.00 0.05 0.00 68 1008.2
20260831073015 11 263 6.4 17.7 0.00 0.05 0.00 67 1008.2
20260831071512 11 261 6.4 17.7 0.00 0.05 0.00 65 1008.2
20260831070012 11 261 8.0 17.7 0.00 0.05 0.00 64 1008.2
20260831064506 12 297 8.0 22.5 0.00 0.05 0.00 63 1008.2
20260831063004 12 286 9.7 22.5 0.00 0.05 0.00 61 1008.0
20260831061605 12 223 12.9 27.4 0.00 0.05 0.00 60 1008.1
20260831060057 12 277 8.0 19.3 0.00 0.05 0.00 60 1007.9
20260831054554 13 270 8.0 19.3 0.00 0.05 0.05 60 1007.9
20260831053053 13 265 6.4 22.5 0.00 0.05 0.05 59 1007.9
20260831051559 13 284 11.3 24.1 0.00 0.05 0.05 60 1007.9
20260831050050 13 284 6.4 22.5 0.00 0.05 0.05 60 1008.0
20260831044551 13 242 11.3 27.4 0.00 0.05 0.05 58 1008.2
20260831043046 14 261 11.3 25.7 0.00 0.05 0.05 54 1008.1
20260831041551 15 275 11.3 25.7 0.00 0.05 0.05 48 1007.5
20260831040046 15 290 9.7 24.1 0.00 0.05 0.05 48 1007.7
20260831034549 15 286 4.8 22.5 0.00 0.05 0.05 48 1007.9
20260831033044 15 323 11.3 27.4 0.00 0.05 0.05 47 1007.9
20260831031544 15 267 11.3 20.9 0.00 0.05 0.05 48 1007.7
20260831030044 15 236 11.3 24.1 0.00 0.05 0.05 48 1007.6
20260831024544 15 270 8.0 20.9 0.00 0.05 0.05 47 1007.4
20260831023042 15 330 12.9 30.6 0.00 0.05 0.05 46 1007.2
20260831021542 16 269 9.7 30.6 0.00 0.05 0.05 46 1007.0
20260831020047 15 239 11.3 25.7 0.00 0.05 0.05 48 1007.1
20260831014542 15 261 8.0 17.7 0.00 0.05 0.05 51 1006.8
20260831013046 16 266 9.7 20.9 0.00 0.05 0.05 49 1006.8
20260831011545 16 261 8.0 20.9 0.00 0.05 0.05 51 1007.0
20260831010043 16 323 12.9 27.4 0.00 0.05 0.05 49 1007.0
20260831004540 16 273 16.1 35.4 0.00 0.05 0.05 47 1007.1
20260831003041 17 263 16.1 29.0 0.00 0.05 0.05 45 1007.0
20260831001538 17 284 19.3 35.4 0.00 0.05 0.05 41 1006.8
20260831000038 17 288 16.1 37.0 0.00 0.05 0.05 39 1006.5
20260830234542 19 273 14.5 33.8 0.00 0.05 0.05 37 1006.4
20260830233037 19 241 16.1 35.4 0.00 0.05 0.05 37 1006.2
20260830231537 18 261 11.3 22.5 0.00 0.05 0.05 41 1006.3
20260830230036 17 242 14.5 27.4 0.00 0.05 0.05 42 1006.6
20260830224536 17 256 17.7 33.8 0.00 0.05 0.05 42 1006.7
20260830223036 17 201 16.1 29.0 0.00 0.05 0.05 41 1006.8
20260830221544 17 217 14.5 29.0 0.00 0.05 0.05 42 1006.8
20260830220035 17 294 12.9 30.6 0.00 0.05 0.05 42 1006.9
20260830214534 18 256 16.1 37.0 0.00 0.05 0.05 39 1006.8
20260830213033 18 261 16.1 38.6 0.00 0.05 0.05 38 1006.7
20260830211533 20 246 11.3 29.0 0.00 0.05 0.05 36 1006.7
20260830210035 20 246 17.7 35.4 0.00 0.05 0.05 36 1006.6
20260830204532 18 229 16.1 37.0 0.00 0.05 0.05 40 1006.7
20260830203031 17 302 16.1 29.0 0.00 0.05 0.05 39 1006.5
20260830201531 18 263 12.9 32.2 0.00 0.05 0.05 37 1006.5
20260830200042 18 223 11.3 35.4 0.00 0.05 0.05 39 1006.5
20260830194532 18 304 12.9 25.7 0.00 0.05 0.05 36 1006.4
20260830193030 19 247 9.7 25.7 0.00 0.05 0.05 35 1006.4
20260830191529 20 330 8.0 20.9 0.00 0.05 0.05 33 1006.4
20260830190042 20 244 9.7 24.1 0.00 0.05 0.05 33 1006.3
20260830184526 19 237 14.5 29.0 0.00 0.05 0.05 35 1006.6
20260830183023 19 224 11.3 30.6 0.00 0.05 0.05 38 1006.5
20260830181521 18 232 16.1 30.6 0.00 0.05 0.05 40 1006.6
20260830180021 18 248 9.7 22.5 0.00 0.05 0.05 44 1006.8
20260830174518 17 221 16.1 27.4 0.00 0.05 0.05 50 1006.9
20260830173017 17 215 8.0 20.9 0.00 0.05 0.05 51 1006.8
20260830171512 16 265 4.8 12.9 0.00 0.05 0.05 46 1007.0
20260830170010 16 262 4.8 16.1 0.00 0.05 0.05 46 1007.0
20260830164508 16 261 6.4 12.9 0.00 0.05 0.05 46 1007.0
20260830163007 16 241 6.4 14.5 0.00 0.05 0.05 47 1006.9
20260830161503 15 275 3.2 12.9 0.00 0.05 0.05 51 1006.9
20260830160001 15 240 3.2 8.0 0.00 0.05 0.05 53 1006.8
20260830154501 15 260 1.6 8.0 0.00 0.05 0.05 53 1006.8
20260830153058 15 292 1.6 8.0 0.00 0.05 0.05 56 1006.8
20260830151556 14 290 0.0 0.0 0.00 0.05 0.05 65 1007.0
20260830150104 14 238 0.0 4.8 0.00 0.05 0.05 74 1007.2
20260830144555 13 221 0.0 8.0 0.00 0.05 0.05 69 1007.3
20260830143105 13 173 1.6 6.4 0.00 0.05 0.05 65 1007.2
20260830141554 13 160 1.6 6.4 0.00 0.05 0.05 64 1007.4